User: anonymous   Login
Location: ??
(34.9170°N, 135.5016°E)
Time: 03:29:19
(UTC+00:00)
Language:

Cosmos 1140 Rocket - Orbit

View from above orbital plane
View from above orbital plane
View from above satellite
View from above satellite

Ground track
Ground track

The orbit data is extracted from the following two-line orbital elements,

1 11574U 79089B   21018.89302510  .00000071  00000-0  30323-4 0  9994
2 11574  74.0715 317.6005 0017176 249.5260 110.4052 14.40785097165860
Epoch (UTC): 18 January 2021 21:25:57
Eccentricity: 0.0017176
inclination: 74.0715°
perigee height: 743 km
apogee height: 768 km
right ascension of ascending node: 317.6005°
argument of perigee: 249.5260°
revolutions per day: 14.40785097
mean anomaly at epoch: 110.4052°
orbit number at epoch: 16586

The dashed part of the orbit path shows where the satellite is in the earth's shadow,  

DLR